Terminal Aerodrome Forecast
Issued by NWS

Home | Current Version | Previous Version | Text Only | Print | Product List | Glossary On
Versions: 1 2 3 4 5 6 7 8 9 10 11 12 13 14 15 16 17 18
000
FTUS44 KMAF 212300
TAFINK
TAF
KINK 212327Z 2200/2224 14012G22KT P6SM SCT060
      TEMPO 2200/2202 -TSRA SCT050CB
     FM220300 14011KT P6SM FEW060=

USA.gov is the U.S. government's official web portal to all federal, state and local government web resources and services.